Location: Berlin
(52.5171°N, 13.3759°E)
Time: 10:36:11
(UTC+01:00)

ISS - Pass Details

Date: 14 November 2017
Orbit: 402 x 407 km, 51.6° (Epoch: 23 November)

Event Time Altitude Azimuth Distance (km) Brightness Sun altitude
Exits shadow 05:45:06 24° 231° (SW) 893 -2.5 -15.3°
Maximum altitude 05:45:44 25° 210° (SSW) 848 -2.4 -15.2°
Drops below altitude 10° 05:48:30 10° 152° (SSE) 1,452 -0.5 -14.8°
Sets 05:50:46 0° 139° (SE) 2,308 0.9 -14.4°
